Location: Ceske Budejovice
(48.9830°N, 14.4670°E)
Time: 13:30:33
(UTC+02:00)

ISS - Pass Details

Date: 09 July 2022
Orbit: 412 x 420 km, 51.6° (Epoch: 18 August)

Event Time Altitude Azimuth Distance (km) Brightness Sun altitude
Exits shadow 01:41:37 31° 260° (W) 756 -2.7 -18.2°
Maximum altitude 01:43:04 78° 342° (NNW) 432 -3.7 -18.2°
Drops below altitude 10° 01:46:27 10° 70° (ENE) 1,501 -0.6 -18.1°
Sets 01:48:33 0° 72° (ENE) 2,369 0.5 -18.0°
